Location: *
(35.2348°S, 91.3916°E)
Time: 14:09:17
(UTC+00:00)

Resurs 01 Rocket - Pass Details

Date: 23 October 2019
Orbit: 634 x 645 km, 98.0° (Epoch: 12 November)

Event Time Altitude Azimuth Distance (km) Brightness Sun altitude
Rises 16:04:20 0° 184° (S) 2,984 5.8 -38.2°
Reaches altitude 10° 16:06:58 10° 199° (SSW) 2,067 4.9 -38.5°
Enters shadow 16:08:05 15° 211° (SSW) 1,752 4.5 -38.6°
